Regional Weather Roundup
Issued by NWS Green Bay, WI

Home | Current Version | Previous Version | Text Only | Print | Product List | Glossary On
Versions: 1 2 3 4 5 6 7 8 9 10 11 12 13 14 15 16 17 18 19 20 21 22 23 24 25 26 27 28 29 30 31 32 33 34 35 36 37 38 39 40 41 42 43 44 45 46 47 48 49 50
000
ASUS43 KGRB 052210
RWRGRB

NORTH-CENTRAL AND NORTHEAST WISCONSIN REGIONAL WEATHER ROUNDUP
NATIONAL WEATHER SERVICE GREEN BAY WI
400 PM CST THU MAR 05 2015

WIZ005-009-010>012-018-019-052300-
NORTH CENTRAL WISCONSIN

CITY           SKY/WX    TMP DP  RH WIND       PRES   REMARKS
IRONWOOD       SUNNY     14  -9  34 W10       30.27S WCI   1
MANITOWISH WTR SUNNY     12 -12  33 W10       30.27S WCI  -1
ARBOR VITAE    SUNNY     14 -10  33 W5        30.27F WCI   6
EAGLE RIVER    SUNNY     12 -13  32 W13       30.26F WCI  -3
LAND O LAKES   SUNNY     15 -12  29 W6        30.26S WCI   6
RHINELANDER    SUNNY     12  -9  38 W14       30.29S WCI  -3
PHILLIPS       SUNNY     10 -10  41 SW9       30.31F WCI  -3
ANTIGO         SUNNY      8  -6  52 W10       30.32S WCI  -6
TOMAHAWK       SUNNY     13 -12  31 NW9       30.32S WCI   0
MERRILL        SUNNY     10  -7  45 SW12      30.35S WCI  -4
$$

WIZ013-073-052300-
NORTHEAST WISCONSIN

CITY           SKY/WX    TMP DP  RH WIND       PRES   REMARKS
IRON MOUNTAIN  SUNNY     16  -9  32 W8        30.28F WCI   5
MARINETTE      SUNNY     18  -6  35 W8        30.37S WCI   7
OCONTO         SUNNY     15  -5  40 SW12      30.40S WCI   2
$$

WIZ017-030-035>037-045-052300-
CENTRAL WISCONSIN

CITY           SKY/WX    TMP DP  RH WIND       PRES   REMARKS
MEDFORD        SUNNY      7  -8  51 SW8       30.35S WCI  -6
WAUSAU         SUNNY      9  -7  48 W13       30.37S WCI  -7
MOSINEE        SUNNY      9  -6  52 W12       30.39S WCI  -6
MARSHFIELD     SUNNY     11  -7  44 W8        30.38F WCI  -1
WISC RAPIDS    SUNNY     14  -7  38 W9        30.42S WCI   2
STEVENS POINT  SUNNY     10  -8  44 W7        30.40S WCI  -1
WAUPACA        SUNNY     18  -6  34 W6        30.42F WCI  10
SHAWANO        SUNNY     17  -8  33 W7        30.40S WCI   7
CLINTONVILLE   SUNNY     14  -8  37 W9        30.41S WCI   2
$$

WIZ038-039-048-051-052300-
FOX VALLEY

CITY           SKY/WX    TMP DP  RH WIND       PRES   REMARKS
NWS GREEN BAY  SUNNY     14  -5  42 SW10      30.42S WCI   1
APPLETON       SUNNY     14  -8  37 W8        30.41S WCI   3
OSHKOSH        SUNNY     15  -4  42 W8G17     30.42S WCI   4
FOND DU LAC    SUNNY     15  -5  40 W9        30.43S WCI   3
$$

WIZ022-050-052-052300-
EAST CENTRAL WISCONSIN

CITY           SKY/WX    TMP DP  RH WIND       PRES   REMARKS
STURGEON BAY   SUNNY     12  -6  44 W10       30.42R WCI  -1
MANITOWOC      SUNNY     15  -2  46 W13       30.44R WCI   1
SHEBOYGAN      SUNNY     14  -4  44 W9        30.44R WCI   2
$$

LMZ563-521-522-541>543-052300-
LAKESHORE

STATION/POSITION TIME  TEMP    WIND        PRES    VSBY  WAVE
                       AIR SEA DIR/SP/G                  HT/PER
                 (UTC) (F)     (DEG/KT/KT) (MB)    (MI)  (FT/S)
SHEBOYGAN LKSHOR 2200   14     290/ 11/ 12 1032.8S
KEWAUNEE LKSHORE 2200   14     270/ 11/ 14 1029.2S
NORTHPORT PIER   2200   16     230/  5/ 10 1028.8S
SISTER BAY LKSHO 2100   22     230/ 10/ 11   N/A
CHAMBERS ISLAND  2200   13     180/  8/ 14 1028.8S
MENOMINEE LKSHOR 2200   16     210/ 11     1029.3S
$$



USA.gov is the U.S. government's official web portal to all federal, state and local government web resources and services.